Content
SEND FEEDBACK

Daily
Averages
Monthly
Summary
Spain

ZARAGOZA, SPAIN


Home > Europe > Spain
Elevation: 846 feet     Latitude: 41 40N     Longitude: 001 01W

WEATHER
 
SELECT A DAY
Number of Records: 322,609;   Date Range: 7/1/96 - 12/17/14
 
SHARE

PRINT THIS DATA

[ ← Previous Day ]
WEATHER ALMANAC - FEBRUARY 17, 2013
[ Next Day → ]
[ °C ]   °F
Weather ElementAverageHighLow
Temperature44.9 °F55.4 °F (3:00 pm)35.6 °F (8:00 am)
Dewpoint39.2 °F45 °F (7:00 pm)33.8 °F (3:00 am)
Humidity80.9 %93 % (1:30 am)63 % (3:00 pm)
Barometer29.96 in30.04 in (12:30 am)29.86 in (5:30 pm)
Wind Speed2.4 mph8.1 mph (2:00 pm)
Weather ElementAverage
Visibility4.4 mi
Wind DirectionE (91.8 °)

Weather ElementTotal
Precipitation---
Heating Degree Days19.5 (Base 65)
Averaged from 50 records on February 17, 2013
WEATHER CONDITIONS BREAKOUT
WIND DIRECTION BREAKOUT
WEATHER BY HOUR - FEBRUARY 17, 2013
[ °C ]   °F
Local TimeTemperatureDewpointHumidityBarometerVisibilityWind DirectionWind SpeedGust SpeedPrecipitationEventsConditions
12:30 AM39.2 °F35.6 °F87 %30.04 inCalmClear
1:00 AM39.2 °F35.6 °F87 %30.04 inCalmClear
1:30 AM39.2 °F37.4 °F93 %30.04 in5.6 miESE (120°)3.5 mph
2:00 AM39.2 °F35.6 °F87 %30.04 in5.0 miSE (130°)3.5 mph
2:30 AM39.2 °F35.6 °F87 %30.04 in5.0 miSSE (160°)2.3 mph
3:00 AM37.4 °F33.8 °F87 %30.04 in5.0 miSSE (160°)2.3 mph
3:30 AM37.4 °F33.8 °F87 %30.04 in5.0 miSSE (160°)2.3 mph
4:00 AM37.4 °F33.8 °F87 %30.01 inSE (140°)1.2 mphClear
4:30 AM37.4 °F35.6 °F93 %30.01 inSSE (160°)1.2 mphClear
5:00 AM37.4 °F35.6 °F93 %30.01 inSE (140°)3.5 mphClear
5:30 AM37.4 °F33.8 °F87 %30.01 in5.0 miVariable1.2 mphPartly Cloudy
6:00 AM37.4 °F35.6 °F93 %30.01 in5.0 miSSE (150°)2.3 mphScattered Clouds
6:30 AM37.4 °F35.6 °F93 %30.01 in5.0 miCalmMostly Cloudy
7:00 AM39.0 °F35.0 °F81 %30.04 in6.0 miCalmMist
7:00 AM37.4 °F35.6 °F93 %30.01 in5.6 miCalmMostly Cloudy
7:30 AM37.4 °F33.8 °F87 %30.01 in5.6 miCalmScattered Clouds
8:00 AM35.6 °F33.8 °F93 %30.01 in3.7 miCalmMostly Cloudy
8:30 AM37.4 °F35.6 °F93 %30.01 in4.3 miCalmMostly Cloudy
9:00 AM37.4 °F35.6 °F93 %30.01 in4.3 miCalmMostly Cloudy
9:30 AM39.2 °F37.4 °F93 %30.01 in3.1 miCalmMostly Cloudy
10:00 AM41.0 °F37.4 °F87 %30.01 inCalmMostly Cloudy
10:30 AM42.8 °F37.4 °F81 %30.01 inCalmMostly Cloudy
11:00 AM42.8 °F37.4 °F81 %30.01 in2.5 miVariable1.2 mphMostly Cloudy
11:30 AM44.6 °F39.2 °F81 %30.01 in2.5 miVariable1.2 mphMostly Cloudy
12:00 PM46.4 °F39.2 °F76 %29.98 in2.5 miCalmMostly Cloudy
12:30 PM48.2 °F41.0 °F76 %29.98 in3.1 miCalmMostly Cloudy
1:00 PM50.0 °F43.0 °F69 %29.99 in4.0 miEast (100°)4.6 mphHaze
1:00 PM50.0 °F41.0 °F71 %29.98 in3.7 miESE (110°)4.6 mphPartly Cloudy
1:30 PM51.8 °F42.8 °F71 %29.95 in3.7 miEast (100°)5.8 mph
2:00 PM51.8 °F42.8 °F71 %29.95 in3.7 miEast (90°)8.1 mph
2:30 PM53.6 °F42.8 °F67 %29.92 in3.7 miEast (100°)6.9 mph
3:00 PM55.4 °F42.8 °F63 %29.92 in5.0 miESE (110°)6.9 mph
3:30 PM55.4 °F42.8 °F63 %29.89 in5.0 miESE (110°)6.9 mph
4:00 PM55.4 °F42.8 °F63 %29.89 in5.0 miEast (90°)5.8 mph
4:30 PM55.4 °F42.8 °F63 %29.89 inEast (90°)5.8 mphClear
5:00 PM55.4 °F42.8 °F63 %29.89 inEast (80°)4.6 mphClear
5:30 PM53.6 °F42.8 °F67 %29.86 inESE (110°)3.5 mphClear
6:00 PM53.6 °F42.8 °F67 %29.86 inENE (70°)1.2 mphClear
6:30 PM53.6 °F42.8 °F67 %29.89 inEast (80°)1.2 mphClear
7:00 PM53.0 °F45.0 °F67 %29.89 in6.0 miESE (110°)1.2 mphClear
7:00 PM51.8 °F42.8 °F71 %29.89 inVariable1.2 mphClear
7:30 PM48.2 °F42.8 °F82 %29.89 in5.6 miSW (220°)2.3 mph
8:00 PM46.4 °F42.8 °F87 %29.89 in5.6 miVariable1.2 mph
8:30 PM46.4 °F41.0 °F81 %29.89 in5.6 miCalm
9:00 PM46.4 °F42.8 °F87 %29.89 in5.6 miWest (280°)3.5 mph
9:30 PM48.2 °F42.8 °F82 %29.89 in4.3 miWest (270°)5.8 mph
10:00 PM46.4 °F42.8 °F87 %29.89 in3.1 miWest (260°)4.6 mphPartly Cloudy
10:30 PM46.4 °F42.8 °F87 %29.89 in3.1 miWest (270°)4.6 mphPartly Cloudy
11:00 PM46.4 °F42.8 °F87 %29.89 in3.1 miWest (260°)3.5 mphPartly Cloudy
11:30 PM46.4 °F42.8 °F87 %29.89 in3.1 miWest (270°)2.3 mphPartly Cloudy
Hourly data recorded from LEZG, located miles away from Zaragoza, Spain







STORIES FROM OUR PARTNERS